{"data":{"norad_id":65094,"intl_designator":"2025-167S","name":"STARLINK-34769","alt_names":[],"object_type":"PAYLOAD","status":"ACTIVE","operator":null,"country":"US","launch_date":"2025-08-04","launch_site_code":"AFETR","launch_vehicle":null,"mission":null,"orbit_class":"UNKNOWN","rcs_meters":null,"size_class":null,"mass_kg":null,"dimensions":null,"purposes":["comms"],"wikipedia_slug":null,"has_3d_model":false,"image_url":null,"decayed_at":null,"tle_current":{"epoch":"2026-05-24T23:20:55.739904Z","epoch_age_seconds":80611,"freshness":"FRESH","line1":"1 65094U 25167S   26144.97286736  .00045646  00000+0  10520-2 0  9994","line2":"2 65094  53.1590  29.8774 0001452 311.9875  48.1007 15.42163408 45184","mean_motion":15.42163408,"eccentricity":0.0001452,"inclination_deg":53.159,"raan_deg":29.8774,"arg_perigee_deg":311.9875,"mean_anomaly_deg":48.1007,"bstar":0.001052,"rev_number":4518,"period_min":93.375318888386,"perigee_km":438.73565557719,"apogee_km":440.71556287891,"semimajor_km":6817.8626092281,"source":"CELESTRAK","updated_at":"2026-05-25T13:38:20.685692Z"}}}